Radiation Dose at Monitoring Post of Fukushima Daini Nuclear Power Station
Date,Time,MP-1(microSv/h),MP-2(microSv/h),MP-3(microSv/h),MP-4(microSv/h),MP-5(microSv/h),MP-6(microSv/h),MP-7(microSv/h),Wind Direction,Wind Velocity(m/s),Rain
2019/04/05,00:00,0.208,0.191,0.315,0.294,0.277,0.158,0.095,southwest,6.6,No
2019/04/05,00:10,0.208,0.191,0.315,0.294,0.278,0.157,0.095,west-southwest,6.9,No
2019/04/05,00:20,0.208,0.192,0.315,0.294,0.277,0.156,0.095,southwest,7.0,No
2019/04/05,00:30,0.207,0.191,0.316,0.294,0.278,0.158,0.094,west-southwest,8.5,No
2019/04/05,00:40,0.207,0.191,0.315,0.293,0.279,0.158,0.094,west-southwest,7.4,No
2019/04/05,00:50,0.207,0.192,0.316,0.294,0.278,0.157,0.096,west-southwest,6.6,No
2019/04/05,01:00,0.207,0.192,0.316,0.295,0.277,0.157,0.095,west-southwest,4.7,No
2019/04/05,01:10,0.206,0.191,0.314,0.293,0.277,0.156,0.095,west-southwest,5.1,No
2019/04/05,01:20,0.208,0.191,0.315,0.295,0.276,0.157,0.095,west-southwest,4.6,No
2019/04/05,01:30,0.209,0.191,0.315,0.295,0.277,0.157,0.095,west-southwest,5.1,No
2019/04/05,01:40,0.208,0.192,0.314,0.293,0.278,0.157,0.095,west-southwest,3.7,No
2019/04/05,01:50,0.208,0.192,0.314,0.293,0.278,0.158,0.095,west-southwest,3.5,No
2019/04/05,02:00,0.208,0.191,0.315,0.293,0.278,0.157,0.095,southwest,2.1,No
2019/04/05,02:10,0.208,0.191,0.316,0.294,0.278,0.157,0.095,south,2.9,No
2019/04/05,02:20,0.207,0.191,0.314,0.293,0.277,0.156,0.095,south-southwest,3.0,No
2019/04/05,02:30,0.207,0.191,0.316,0.293,0.278,0.157,0.095,south-southwest,3.9,No
2019/04/05,02:40,0.208,0.191,0.315,0.296,0.279,0.158,0.097,south-southwest,5.3,No
2019/04/05,02:50,0.206,0.192,0.314,0.294,0.278,0.157,0.096,south-southwest,4.4,No
2019/04/05,03:00,0.208,0.191,0.316,0.294,0.277,0.158,0.096,south,4.8,No
2019/04/05,03:10,0.207,0.191,0.314,0.295,0.277,0.157,0.095,south-southwest,6.2,No
2019/04/05,03:20,0.208,0.191,0.315,0.294,0.279,0.158,0.095,south-southwest,5.9,No
2019/04/05,03:30,0.208,0.192,0.314,0.293,0.276,0.157,0.096,southwest,5.4,No
2019/04/05,03:40,0.208,0.192,0.315,0.295,0.278,0.157,0.095,south-southwest,5.6,No
2019/04/05,03:50,0.207,0.192,0.314,0.295,0.278,0.157,0.095,south-southwest,5.6,No
2019/04/05,04:00,0.207,0.193,0.315,0.295,0.279,0.156,0.095,south-southwest,6.3,No
2019/04/05,04:10,0.207,0.190,0.315,0.294,0.277,0.157,0.096,south-southwest,6.5,No
2019/04/05,04:20,0.208,0.192,0.314,0.295,0.277,0.158,0.095,southwest,5.6,No
2019/04/05,04:30,0.208,0.192,0.316,0.296,0.278,0.157,0.095,southwest,4.1,No
2019/04/05,04:40,0.207,0.192,0.316,0.295,0.277,0.156,0.096,southwest,4.9,No
2019/04/05,04:50,0.208,0.192,0.316,0.294,0.278,0.157,0.094,southwest,5.3,No
2019/04/05,05:00,0.209,0.192,0.314,0.295,0.278,0.156,0.095,southwest,5.7,No
2019/04/05,05:10,0.209,0.192,0.315,0.296,0.278,0.157,0.095,southwest,6.3,No
2019/04/05,05:20,0.207,0.193,0.317,0.293,0.279,0.158,0.095,south-southwest,5.9,No
2019/04/05,05:30,0.207,0.191,0.315,0.294,0.276,0.157,0.096,south-southwest,6.0,No
2019/04/05,05:40,0.209,0.191,0.314,0.295,0.277,0.158,0.095,south-southwest,5.6,No
2019/04/05,05:50,0.208,0.192,0.316,0.295,0.278,0.158,0.095,south-southwest,6.2,No
2019/04/05,06:00,0.207,0.192,0.315,0.294,0.277,0.156,0.095,south-southwest,6.8,No
2019/04/05,06:10,0.209,0.191,0.314,0.294,0.277,0.156,0.095,south-southwest,6.2,No
2019/04/05,06:20,0.207,0.192,0.316,0.295,0.278,0.157,0.095,south-southwest,4.8,No
2019/04/05,06:30,0.208,0.193,0.316,0.294,0.278,0.157,0.095,south-southwest,4.8,No
2019/04/05,06:40,0.207,0.191,0.315,0.293,0.278,0.157,0.095,south-southwest,4.8,No
2019/04/05,06:50,0.208,0.192,0.316,0.295,0.277,0.158,0.094,south-southwest,4.4,No
2019/04/05,07:00,0.207,0.192,0.315,0.294,0.279,0.157,0.095,south,4.6,No
2019/04/05,07:10,0.209,0.192,0.315,0.294,0.278,0.158,0.095,south,5.1,No
2019/04/05,07:20,0.208,0.192,0.315,0.295,0.279,0.157,0.096,south,5.3,No
2019/04/05,07:30,0.209,0.192,0.315,0.293,0.278,0.157,0.095,south,4.9,No
2019/04/05,07:40,0.208,0.190,0.314,0.295,0.277,0.157,0.095,south,6.2,No
2019/04/05,07:50,0.208,0.192,0.315,0.293,0.279,0.158,0.095,south,6.3,No
2019/04/05,08:00,0.206,0.191,0.314,0.295,0.278,0.157,0.096,south,5.7,No
2019/04/05,08:10,0.208,0.191,0.316,0.291,0.280,0.157,0.095,south-southeast,7.0,No
2019/04/05,08:20,0.208,0.192,0.315,0.294,0.279,0.157,0.095,south-southeast,6.6,No
2019/04/05,08:30,0.208,0.190,0.313,0.293,0.279,0.158,0.094,south-southeast,6.2,No
2019/04/05,08:40,0.207,0.190,0.316,0.295,0.277,0.157,0.095,south-southeast,8.1,No
2019/04/05,08:50,0.208,0.191,0.316,0.294,0.279,0.157,0.095,south-southeast,8.2,No
2019/04/05,09:00,0.207,0.191,0.316,0.291,0.278,0.157,0.095,southeast,7.7,No
2019/04/05,09:10,0.207,0.192,0.315,0.296,0.277,0.157,0.095,south-southeast,7.0,No
2019/04/05,09:20,0.207,0.191,0.315,0.293,0.278,0.157,0.096,south-southeast,7.8,No
2019/04/05,09:30,0.208,0.192,0.316,0.294,0.278,0.157,0.096,south-southeast,9.2,No
2019/04/05,09:40,0.208,0.191,0.315,0.294,0.279,0.157,0.095,south,8.6,No
2019/04/05,09:50,0.206,0.191,0.317,0.293,0.279,0.157,0.097,south,9.8,No
2019/04/05,10:00,0.206,0.190,0.315,0.296,0.277,0.157,0.096,south-southeast,9.8,No
2019/04/05,10:10,0.207,0.192,0.317,0.293,0.280,0.157,0.096,south,10.6,No
2019/04/05,10:20,0.207,0.192,0.315,0.295,0.276,0.157,0.095,south,9.5,No
2019/04/05,10:30,0.207,0.193,0.315,0.295,0.279,0.157,0.095,south-southeast,8.7,No
2019/04/05,10:40,0.207,0.192,0.313,0.294,0.278,0.157,0.095,south,9.2,No
2019/04/05,10:50,0.208,0.191,0.316,0.295,0.276,0.158,0.095,south,11.1,No
2019/04/05,11:00,0.208,0.192,0.313,0.295,0.279,0.158,0.095,south-southeast,12.0,No
2019/04/05,11:10,0.206,0.192,0.315,0.291,0.277,0.156,0.095,south,12.0,No
2019/04/05,11:20,0.208,0.191,0.313,0.294,0.275,0.157,0.096,south,11.2,No
2019/04/05,11:30,0.208,0.192,0.313,0.294,0.278,0.157,0.095,south,11.5,No
2019/04/05,11:40,0.206,0.191,0.315,0.292,0.277,0.157,0.095,south,11.8,No
2019/04/05,11:50,0.208,0.191,0.315,0.295,0.275,0.157,0.095,south,11.5,No
2019/04/05,12:00,0.208,0.193,0.313,0.294,0.280,0.157,0.095,south,10.9,No
2019/04/05,12:10,0.206,0.191,0.313,0.292,0.280,0.157,0.096,south,11.0,No
2019/04/05,12:20,0.205,0.192,0.316,0.295,0.275,0.158,0.095,south,10.9,No
2019/04/05,12:30,0.208,0.192,0.315,0.295,0.276,0.157,0.096,south,11.2,No
2019/04/05,12:40,0.208,0.190,0.313,0.291,0.279,0.158,0.095,south,12.5,No
2019/04/05,12:50,0.207,0.191,0.312,0.295,0.276,0.158,0.094,south-southeast,11.2,No
2019/04/05,13:00,0.206,0.192,0.316,0.296,0.277,0.157,0.095,south,12.1,No
2019/04/05,13:10,0.209,0.191,0.315,0.293,0.280,0.157,0.095,south-southeast,11.5,No
2019/04/05,13:20,0.208,0.193,0.314,0.294,0.277,0.157,0.095,south,13.4,No
2019/04/05,13:30,0.205,0.191,0.312,0.296,0.276,0.157,0.096,south-southeast,13.2,No
2019/04/05,13:40,0.209,0.192,0.316,0.293,0.281,0.158,0.095,south-southeast,11.5,No
2019/04/05,13:50,0.208,0.191,0.316,0.297,0.277,0.157,0.095,south-southeast,9.8,No
2019/04/05,14:00,0.206,0.193,0.314,0.293,0.277,0.157,0.095,south-southeast,11.5,No
2019/04/05,14:10,0.208,0.192,0.313,0.296,0.279,0.157,0.095,south-southeast,10.7,No
2019/04/05,14:20,0.208,0.191,0.316,0.296,0.278,0.157,0.095,south,11.1,No
2019/04/05,14:30,0.206,0.192,0.314,0.293,0.278,0.157,0.096,south,10.7,No
2019/04/05,14:40,0.209,0.192,0.311,0.296,0.279,0.157,0.096,south,10.0,No
2019/04/05,14:50,0.208,0.191,0.316,0.294,0.275,0.157,0.094,south,10.0,No
2019/04/05,15:00,0.206,0.192,0.315,0.295,0.279,0.157,0.095,south,10.0,No
2019/04/05,15:10,0.208,0.191,0.313,0.294,0.280,0.156,0.096,south,9.8,No
2019/04/05,15:20,0.209,0.192,0.316,0.296,0.277,0.158,0.095,south,9.0,No
2019/04/05,15:30,0.206,0.192,0.315,0.296,0.277,0.157,0.096,south,8.5,No
2019/04/05,15:40,0.207,0.192,0.316,0.293,0.278,0.157,0.095,south,8.4,No
2019/04/05,15:50,0.209,0.191,0.317,0.296,0.278,0.158,0.096,south,6.6,No
2019/04/05,16:00,0.206,0.193,0.315,0.294,0.275,0.156,0.095,south,7.6,No
2019/04/05,16:10,0.208,0.193,0.317,0.296,0.279,0.158,0.095,south,9.8,No
2019/04/05,16:20,0.207,0.194,0.314,0.295,0.280,0.157,0.095,south,8.6,No
2019/04/05,16:30,0.208,0.192,0.317,0.296,0.276,0.156,0.095,south,7.7,No
2019/04/05,16:40,0.209,0.192,0.315,0.294,0.275,0.157,0.095,south-southwest,6.4,No
2019/04/05,16:50,0.208,0.192,0.317,0.297,0.280,0.156,0.096,south-southwest,5.0,No
2019/04/05,17:00,0.209,0.192,0.316,0.294,0.277,0.157,0.095,west-southwest,5.3,No
2019/04/05,17:10,0.207,0.192,0.318,0.297,0.276,0.158,0.095,west,9.5,No
2019/04/05,17:20,0.208,0.192,0.316,0.294,0.279,0.157,0.095,west-northwest,9.5,No
2019/04/05,17:30,0.207,0.192,0.318,0.297,0.278,0.158,0.095,west,10.7,No
2019/04/05,17:40,0.208,0.191,0.317,0.293,0.280,0.158,0.095,west-northwest,10.0,No
2019/04/05,17:50,0.208,0.193,0.318,0.297,0.280,0.157,0.094,west-northwest,10.1,No
2019/04/05,18:00,0.208,0.192,0.316,0.295,0.280,0.157,0.096,west-northwest,10.7,No
2019/04/05,18:10,0.208,0.192,0.317,0.297,0.280,0.158,0.095,west-northwest,11.5,No
2019/04/05,18:20,0.209,0.193,0.316,0.296,0.281,0.157,0.096,west-northwest,11.1,No
2019/04/05,18:30,0.207,0.191,0.318,0.296,0.278,0.157,0.095,west,14.0,No
2019/04/05,18:40,0.209,0.192,0.316,0.295,0.280,0.157,0.095,west,14.7,No
2019/04/05,18:50,0.208,0.192,0.318,0.296,0.278,0.158,0.095,west-northwest,13.4,No
2019/04/05,19:00,0.208,0.191,0.317,0.297,0.281,0.158,0.095,west-northwest,12.9,No
2019/04/05,19:10,0.207,0.192,0.317,0.296,0.279,0.158,0.095,west-northwest,13.9,No
2019/04/05,19:20,0.208,0.193,0.319,0.297,0.279,0.156,0.094,west-northwest,13.4,No
2019/04/05,19:30,0.208,0.192,0.316,0.295,0.279,0.158,0.095,west,14.7,No
2019/04/05,19:40,0.208,0.191,0.317,0.296,0.279,0.157,0.094,west,18.4,No
2019/04/05,19:50,0.208,0.192,0.317,0.295,0.280,0.157,0.096,west-northwest,16.3,No
2019/04/05,20:00,0.206,0.193,0.318,0.294,0.278,0.157,0.095,west-northwest,17.2,No
2019/04/05,20:10,0.207,0.192,0.317,0.298,0.279,0.157,0.095,west,18.7,No
2019/04/05,20:20,0.208,0.192,0.317,0.294,0.278,0.157,0.095,west,16.2,No
2019/04/05,20:30,0.207,0.192,0.319,0.296,0.279,0.158,0.095,west,15.1,No
2019/04/05,20:40,0.208,0.192,0.318,0.297,0.279,0.158,0.094,west-northwest,14.0,No
2019/04/05,20:50,0.208,0.192,0.317,0.295,0.279,0.158,0.096,west,15.4,No
2019/04/05,21:00,0.209,0.194,0.317,0.297,0.279,0.157,0.095,west-northwest,13.1,No
2019/04/05,21:10,0.208,0.192,0.317,0.294,0.280,0.158,0.095,west,13.9,No
2019/04/05,21:20,0.209,0.193,0.318,0.297,0.278,0.157,0.095,west,15.0,No
2019/04/05,21:30,0.209,0.191,0.317,0.295,0.280,0.157,0.095,west,15.1,No
2019/04/05,21:40,0.208,0.191,0.317,0.296,0.278,0.156,0.096,west,15.1,No
2019/04/05,21:50,0.209,0.193,0.318,0.296,0.278,0.158,0.096,west,12.0,No
2019/04/05,22:00,0.209,0.192,0.316,0.294,0.280,0.158,0.095,west,12.6,No
2019/04/05,22:10,0.208,0.192,0.318,0.297,0.279,0.157,0.096,west-northwest,10.7,No
2019/04/05,22:20,0.208,0.192,0.317,0.295,0.280,0.158,0.094,west,9.6,No
2019/04/05,22:30,0.208,0.192,0.317,0.295,0.279,0.157,0.096,west-northwest,11.2,No
2019/04/05,22:40,0.208,0.193,0.316,0.297,0.279,0.157,0.095,west-northwest,9.8,Yes
2019/04/05,22:50,0.208,0.192,0.318,0.295,0.279,0.157,0.096,west-northwest,10.1,Yes
2019/04/05,23:00,0.209,0.192,0.318,0.297,0.278,0.157,0.096,west-northwest,9.8,Yes
2019/04/05,23:10,0.208,0.192,0.316,0.295,0.280,0.157,0.096,west-northwest,12.9,Yes
2019/04/05,23:20,0.207,0.192,0.317,0.296,0.280,0.158,0.095,west-northwest,14.5,Yes
2019/04/05,23:30,0.209,0.191,0.318,0.295,0.279,0.158,0.095,west-northwest,15.6,Yes
2019/04/05,23:40,0.208,0.192,0.318,0.296,0.280,0.159,0.095,west-northwest,15.5,No
2019/04/05,23:50,0.208,0.192,0.318,0.295,0.278,0.159,0.095,west,19.4,No
